PDT,Max TemperatureF,Mean TemperatureF,Min TemperatureF,Max Dew PointF,MeanDew PointF,Min DewpointF,Max Humidity, Mean Humidity, Min Humidity, Max Sea Level PressureIn, Mean Sea Level PressureIn, Min Sea Level PressureIn, Max VisibilityMiles, Mean VisibilityMiles, Min VisibilityMiles, Max Wind SpeedMPH, Mean Wind SpeedMPH, Max Gust SpeedMPH,PrecipitationIn, CloudCover, Events, WindDirDegrees
2013-10-1,55,52,48,48,46,45,93,82,72,30.22,30.09,29.99,10,10,6,10,6,,0.37,7,,152
2013-10-2,53,50,46,46,45,43,93,87,72,30.22,30.16,30.11,10,10,5,8,6,,0.30,7,,147
2013-10-3,57,50,42,46,44,41,93,82,59,30.48,30.39,30.23,10,9,1,6,1,,0.01,7,,335
2013-10-4,66,54,42,52,44,39,93,82,52,30.51,30.45,30.38,10,7,0,6,1,,0.00,4,,307
2013-10-5,71,56,42,52,44,41,93,75,33,30.39,30.28,30.17,10,6,0,7,1,,0.00,4,,332
2013-10-6,71,55,39,48,44,37,93,70,38,30.17,30.05,29.97,10,10,8,16,4,25,0.00,0,,150
2013-10-7,59,55,51,50,48,45,94,79,59,30.15,30.08,29.99,10,9,3,9,4,,0.24,7,,176
2013-10-8,57,49,41,48,45,37,93,82,63,30.16,30.09,30.00,10,9,5,12,2,24,0.19,6,,183
2013-10-9,60,48,37,45,41,36,93,78,55,30.16,30.09,30.00,10,10,4,7,2,,0.00,2,,333
2013-10-10,55,50,44,50,45,41,93,83,67,30.12,30.04,29.99,10,9,3,8,0,,0.03,7,,152
2013-10-11,57,52,46,46,45,45,93,82,63,30.18,30.15,30.12,10,10,2,6,2,,0.00,7,,140
2013-10-12,57,50,42,46,44,39,93,81,59,30.22,30.15,30.11,10,9,5,0,0,,0.08,6,,-1
2013-10-13,60,50,39,45,41,37,93,79,55,30.37,30.31,30.22,10,9,4,0,0,,0.00,3,,-1
2013-10-14,62,48,35,45,40,34,93,75,48,30.43,30.39,30.36,10,9,0,7,3,,0.00,1,,22
2013-10-15,66,52,37,45,39,34,93,73,37,30.41,30.30,30.20,10,8,0,8,1,,0.00,1,,338
2013-10-16,57,48,39,46,42,36,93,81,63,30.22,30.19,30.17,10,9,2,10,2,18,0.00,2,,339
2013-10-17,60,52,44,46,44,41,93,78,59,30.29,30.25,30.21,10,10,9,12,2,,0.00,4,,4
2013-10-18,66,52,39,46,42,36,93,76,48,30.25,30.20,30.14,10,8,0,,,,0.00,2,,-1
2013-10-19,64,53,42,48,44,39,93,80,52,30.20,30.18,30.14,10,7,1,,,,0.00,4,,-1
2013-10-20,55,50,44,45,43,41,87,82,67,30.22,30.18,30.14,10,10,7,7,5,,0.00,6,,300
2013-10-21,62,53,44,48,44,39,87,78,59,30.16,30.12,30.06,10,10,7,10,5,16,0.00,4,,335
2013-10-22,64,53,42,50,44,39,87,78,56,30.12,30.07,30.01,10,10,6,10,4,,0.00,3,,330
2013-10-23,66,54,41,52,45,37,93,82,52,30.07,30.04,30.00,10,6,0,7,1,,0.00,4,,348
2013-10-24,57,52,46,48,46,43,93,84,72,30.17,30.09,30.05,10,7,1,7,5,,0.00,7,,180
2013-10-25,55,50,44,48,45,39,93,80,72,30.32,30.26,30.16,10,10,3,4,2,,0.00,7,,180
2013-10-26,55,52,48,45,44,43,87,73,63,30.34,30.29,30.22,10,10,4,13,9,17,0.00,6,,357
2013-10-27,55,48,42,46,42,37,93,78,58,30.23,30.00,29.91,10,9,2,6,2,,0.25,5,,311
2013-10-28,60,48,37,39,37,34,93,71,39,29.98,29.91,29.86,10,10,6,10,10,,0.00,0,,350
2013-10-29,57,45,33,37,33,28,93,74,33,30.09,30.04,29.98,10,8,0,6,1,,0.00,2,,200
2013-10-30,53,42,30,41,35,28,93,70,54,30.21,30.17,30.09,10,10,10,10,2,,0.00,4,,153
2013-10-31,55,52,48,48,45,41,88,80,67,30.32,30.24,30.18,10,9,2,0,0,,0.02,8,,-1